Preview of NWS' New Version of Forecast
This preview is not operational and should not be used for support decisions.

Regional Weather Roundup (RWR)

Issued by Gray - Portland, ME (GYX)

                            
233 
ASUS41 KGYX 192006
RWRGYX
WEATHER ROUNDUP FOR MAINE AND NEW HAMPSHIRE
NATIONAL WEATHER SERVICE GRAY ME
400 PM EDT THU APR 19 2018

MEZ002-005-006-010-012-015-018-020-021-024-026-027-029-192100-
MAINE
  
CITY           SKY/WX    TMP DP  RH WIND       PRES   REMARKS
PORTLAND       CLOUDY    44  36  73 S12G18    29.67R                  
SANFORD        LGT RAIN  42  35  76 VRB3      29.67R                  
BAR HARBOR     CLOUDY    43  36  76 S5        29.67F                  
WISCASSET      CLOUDY    44  35  70 VRB5      29.68R                  
ROCKLAND       CLOUDY    42  36  79 CALM      29.65F                  
FRYEBURG       CLOUDY    45  29  53 N8        29.66R                  
LEWISTONAUBURN CLOUDY    45  30  55 VRB3      29.65R                  
AUGUSTA        CLOUDY    46  27  47 N3        29.65R                  
WATERVILLE     CLOUDY    47  28  47 N6        29.62F                  
BANGOR         CLOUDY    47  31  53 S7        29.65R                  
GREENVILLE       N/A     37  28  70 NW10      29.62R                  
MILLINOCKET    CLOUDY    46  25  43 CALM      29.65S                  
HOULTON        CLOUDY    45  29  53 S3        29.64R                  
PRESQUE ISLE   CLOUDY    45  26  47 CALM      29.65R                  
FRENCHVILLE    CLOUDY    43  27  53 NW6       29.63R                  
CARIBOU        CLOUDY    46  26  45 CALM      29.63R                  
$$

NHZ002-005-008-009-011-012-014-192100-
NEW HAMPSHIRE
  
CITY           SKY/WX    TMP DP  RH WIND       PRES   REMARKS
PORTSMOUTH     CLOUDY    42  37  80 S7        29.66S                  
ROCHESTER      CLOUDY    45  35  68 S8        29.65R                  
NASHUA         LGT RAIN  42  37  82 SW5       29.69R                  
MANCHESTER     LGT RAIN  47  34  60 SW6       29.67R                  
CONCORD        CLOUDY    46  28  49 N13       29.68R                  
LACONIA        CLOUDY    43  28  55 W7        29.68R                  
PLYMOUTH       CLOUDY    42  30  62 W6        29.69R                  
BERLIN         LGT SNOW  38  31  76 N9        29.68R                  
WHITEFIELD     LGT RAIN  39  31  72 N6        29.68S                  
JAFFREY        LGT RAIN  41  33  73 NW8       29.68R                  
KEENE          LGT RAIN  42  31  64 N9        29.71R                  
LEBANON        CLOUDY    44  27  51 NW12      29.70R                  
MT WASHINGTON  SNOW      23  23 100 NW20        N/A  VSB 0   WCI   8  
$$

VTZ005-007-008-192100-
VERMONT
  
CITY           SKY/WX    TMP DP  RH WIND       PRES   REMARKS
ST JOHNSBURY     N/A     41  25  53 MISG      29.69R                  
MONTPELIER     CLOUDY    38  26  62 N13       29.74R                  
BURLINGTON     CLOUDY    42  27  55 N10       29.76R                  
$$

MAZ007-012-024-CTZ003-RIZ002-NYZ038-NYZ072-192100-
SOUTHERN NEW ENGLAND AND NY
  
CITY           SKY/WX    TMP DP  RH WIND       PRES   REMARKS
BOSTON         LGT RAIN  42  36  79 W5        29.69F                  
WORCESTER      LGT RAIN  39  35  86 W13       29.68R                  
NANTUCKET      LGT RAIN  41  41 100 N9        29.70R                  
PROVIDENCE     DRIZZLE   43  39  86 W8        29.72R                  
HARTFORD       LGT RAIN  43  35  73 NW10      29.74R                  
ALBANY         CLOUDY    40  31  70 W17G29    29.79R                  
NEW YORK CITY  PTSUNNY   44  36  73 NW14      29.77S                  
$$

ANZ081-ANZ082-ANZ150-NHZ014-MEZ023>029-192100-
COASTAL MARINE OBSERVATIONS
  
STATION/POSITION TIME  TEMP    WIND        PRES    WAVE
                       AIR SEA DIR/SP/G            HT/PER
                 (UTC) (F)     (DEG/KT/KT) (MB)    (FT/S)
MOUNT DESERT ROC 2000   37     290/  2/  3 1004.3F
MATINICUS ROCK   1900   38     230/  7/  8 1004.7F
ISLE OF SHOALS   1900   38     200/  9/ 10 1004.7S
JEFFREYS LEDGE   1936      41                N/A     2/12
CASHES LEDGE BUO 1950   36 40              1005.0R   3/ 9
$$

.............KEY..............
   WCI - WIND CHILL
   TC  - TEMPERATURE IN CELSIUS
   VSB - VISIBILITY IN MILES
   HX  - HEAT INDEX
   FAIR- INDICATES FEW OR NO CLOUDS BELOW 12,000 FT, WITH NO 
         SIGNIFICANT WEATHER AND/OR OBSTRUCTIONS TO VISIBILITY.